User: anonymous   Login
Location: Mount Wilson Observatory
(34.2257°N, 118.0571°W)
Time: 22:21:56
(UTC-07:00)
Language:

ATLAS 3B CENTAUR R/B - Orbit

View from above orbital plane
View from above orbital plane
View from above satellite
View from above satellite

Ground track
Ground track

The orbit data is extracted from the following two-line orbital elements,

1 28118U 03057B   16269.78500054  .00070157  00000-0  10808-2 0  9997
2 28118  28.1418  90.2915 3218669 226.8639 101.3711  9.03935494265321
Epoch (UTC): 25 September 2016 18:50:24
Eccentricity: 0.3218669
inclination: 28.1418°
perigee height: 223 km
apogee height: 6489 km
right ascension of ascending node: 90.2915°
argument of perigee: 226.8639°
revolutions per day: 9.03935494
mean anomaly at epoch: 101.3711°
orbit number at epoch: 26532

The dashed part of the orbit path shows where the satellite is in the earth's shadow,  

DLR